Location: Carrières
(48.9495°N, 2.0407°E)
Time: 03:03:47
(UTC+00:00)

Transit 2A Rocket - Pass Details

Date: 24 April 2024
Orbit: 585 x 908 km, 66.7° (Epoch: 19 May)

Event Time Altitude Azimuth Distance (km) Brightness Sun altitude
Rises 18:58:58 0° 323° (NW) 3,294 9.4 -1.0°
Reaches altitude 10° 19:01:19 10° 323° (NW) 2,407 8.7 -1.4°
Maximum altitude 19:06:55 81° 238° (WSW) 875 5.4 -2.2°
Drops below altitude 10° 19:12:54 10° 151° (SSE) 2,557 7.2 -3.1°
Sets 19:15:27 0° 150° (SSE) 3,512 7.9 -3.5°
